[[{"header":{"parameterUnit":"m.s-1","parameterCategory":1,"la1":30.2991,"la2":30.254,"lo1":-89.0895,"lo2":-89.0444,"dy":0.0017,"dx":0.0017,"nx":28,"ny":28,"refTime":"2025-08-18T21:00:00:Z","depth":0,"parameterNumber":2,"parameterNumberName":"U-component_of_WINDS"},"data":[0,0,0,0,0,0,0,0,0,0,0,0,0,0,0,0,0,0,0,0,0,0,0,0,0,0,0,0,0,0,0,0,0,0,0,0,0,0,0,0,0,0,0,0,0,0,0,0,0,0,0,0,0,0,0,0,0,0,0.3619,0.3619,0,0.36,0.36,0.36,0.3611,0.3611,0.3612,0.3612,0.3592,0.3591,0.359,0,0,0,0,0,0,0,0,0,0,0,0,0,0.3665,0.3664,0.3619,0.3619,0.3619,0.3601,0.36,0.36,0.3611,0.3611,0.3612,0.3613,0.3593,0.3592,0.359,0,0,0,0,0,0,0,0,0,0,0,0,0,0.3645,0.3663,0.3619,0.3622,0.3622,0.3601,0.36,0.36,0.3611,0.3611,0.3612,0.3613,0.3593,0.3592,0.359,0.3565,0,0,0.3585,0.3585,0,0,0,0,0,0,0,0,0.3646,0.3644,0.3622,0.3622,0.3622,0.3609,0.3609,0.3588,0.361,0.3615,0.3612,0.3613,0.3597,0.3595,0.359,0.3564,0.3563,0.3585,0.3584,0.3584,0.3583,0,0,0,0,0,0,0,0.3648,0.3644,0.3612,0.3621,0.3621,0.3624,0.3622,0.3605,0.3602,0.3615,0.3615,0.3613,0.3597,0.3592,0.359,0.3563,0.3585,0.3584,0.3583,0.3582,0.3516,0.3515,0,0,0,0,0,0,0.3649,0.3645,0.3612,0.3611,0.3636,0.3623,0.3621,0.3612,0.3602,0.3601,0.3612,0.3614,0.3594,0.3591,0.3589,0.3559,0.3584,0.3582,0.3581,0.3517,0.3516,0.3515,0,0,0,0,0,0,0.365,0.3646,0.3613,0.3629,0.3625,0.3621,0.3612,0.3611,0.3606,0.36,0.36,0.3607,0.3594,0.3591,0.3571,0.3559,0.3582,0.358,0.3518,0.3516,0.3515,0.3499,0,0,0,0,0,0,0.3651,0.3646,0.3636,0.3628,0.3624,0.3595,0.3611,0.361,0.3603,0.3604,0.3595,0.3594,0.3595,0.3573,0.3569,0.3557,0.3579,0.3519,0.3517,0.3515,0.3501,0.3497,0.3494,0,0,0,0,0,0.3653,0.3632,0.3636,0.3632,0.3611,0.3595,0.3592,0.3593,0.3602,0.3592,0.3589,0.3595,0.3561,0.3571,0.3567,0.3554,0.3519,0.3517,0.3516,0.3502,0.3498,0.3495,0,0,0,0,0,0,0.3638,0.3631,0.3635,0.3611,0.3604,0.3596,0.3584,0.3589,0.3578,0.358,0.3581,0.3579,0.3558,0.3554,0.3566,0.3529,0.3541,0.3539,0.3533,0.3529,0.3526,0.3527,0.3578,0,0,0,0,0,0.3632,0.3619,0.3614,0.3593,0.3589,0.3587,0.358,0.3582,0.3574,0.357,0.3565,0.3557,0.3545,0.3537,0.3525,0.35,0.3499,0.3489,0.3486,0.3484,0.3481,0.3468,0.3464,0.3508,0.3508,0.3508,0,0,0.362,0.3614,0.3606,0.359,0.3585,0.3571,0.3584,0.3569,0.356,0.3568,0.3549,0.3545,0.3536,0.3514,0.3504,0.351,0.3469,0.3481,0.3479,0.3478,0.3466,0.3462,0.3458,0.3507,0.3507,0.3507,0,0,0.359,0.3585,0.3568,0.3562,0.3553,0.3552,0.3548,0.354,0.3538,0.3519,0.3526,0.3514,0.3492,0.3486,0.348,0.3449,0.3454,0.3445,0.3429,0.3417,0.3413,0.341,0.34,0.3396,0.3443,0.3443,0.3443,0,0.3576,0.3556,0.3558,0.3543,0.3536,0.3544,0.3526,0.3521,0.3508,0.3503,0.3511,0.3484,0.3479,0.3455,0.3448,0.3443,0.3438,0.3446,0.3414,0.3411,0.3408,0.3398,0.3394,0.3442,0.3442,0.3442,0.3442,0,0.3539,0.3525,0.3512,0.3501,0.3493,0.3477,0.3476,0.3468,0.347,0.3469,0.345,0.3443,0.3431,0.3426,0.3427,0.3403,0.3407,0.3414,0.3426,0.3403,0.3393,0.3389,0.344,0.3441,0.3441,0.3441,0,0,0.3499,0.349,0.3485,0.348,0.3472,0.3461,0.3446,0.3434,0.3427,0.3418,0.3405,0.3388,0.3394,0.3387,0.3389,0.3378,0.3355,0.3387,0.3386,0.3381,0.3328,0.3322,0.3318,0.3358,0.3358,0.3357,0.3328,0,0.3469,0.3442,0.3444,0.3419,0.3407,0.3414,0.3401,0.3394,0.3392,0.3382,0.338,0.3367,0.3377,0.3373,0.3363,0.336,0.3344,0.3362,0.3346,0.3346,0.3348,0.3313,0.3307,0.328,0.3325,0.3324,0.3324,0,0.3431,0.3422,0.3395,0.3389,0.3384,0.3372,0.3362,0.3352,0.3344,0.3344,0.3337,0.3341,0.3325,0.3338,0.3317,0.3329,0.3323,0.3321,0.332,0.3319,0.3333,0.331,0.3271,0.3267,0.3318,0.3318,0.3319,0,0.3405,0.3386,0.3368,0.3363,0.3356,0.3347,0.3344,0.3338,0.3331,0.3322,0.3318,0.3307,0.3301,0.3293,0.3293,0.3303,0.3272,0.3285,0.3271,0.3271,0.3264,0.3265,0.3224,0.326,0.326,0.326,0.3261,0,0.3371,0.3355,0.3356,0.3345,0.3327,0.333,0.3312,0.3309,0.3304,0.3292,0.3298,0.3287,0.3289,0.3278,0.3279,0.3262,0.3259,0.3258,0.3258,0.3258,0.3258,0.3253,0.3255,0.3259,0.326,0.326,0.326,0,0.3339,0.3339,0.332,0.3315,0.3313,0.33,0.3296,0.3286,0.3285,0.327,0.3267,0.3266,0.3254,0.3254,0.3239,0.324,0.3219,0.3221,0.3221,0.3222,0.3208,0.3209,0.3163,0.3157,0.3197,0.3197,0.3197,0,0.3317,0.3305,0.3299,0.3292,0.3288,0.3277,0.327,0.3272,0.3265,0.3256,0.3247,0.3236,0.3226,0.3207,0.3204,0.3194,0.3196,0.318,0.3194,0.3194,0.3196,0.3196,0.3195,0.3178,0.3177,0.3177,0.3176,0,0.3279,0.328,0.327,0.3261,0.3252,0.3245,0.3238,0.3232,0.3234,0.3225,0.3213,0.3206,0.3192,0.318,0.317,0.3167,0.3172,0.3172,0.3168,0.3167,0.3168,0.3168,0.3214,0.3173,0.3173,0.3174,0.3174,0.3174,0.3252,0.3241,0.3236,0.3225,0.322,0.3213,0.3204,0.3202,0.3192,0.3181,0.3183,0.317,0.3164,0.3151,0.3147,0.3136,0.3141,0.3136,0.3135,0.3133,0.3132,0.317,0.3134,0.3134,0.3134,0.3134,0.3135,0,0.3214,0.3211,0.3201,0.3191,0.3183,0.3189,0.3182,0.3174,0.3162,0.3157,0.3148,0.3134,0.3123,0.3121,0.311,0.3102,0.3104,0.3099,0.31,0.3099,0.3127,0.3132,0.3098,0.3098,0.3098,0.3098,0.3098,0.3098,0.3194,0.3177,0.3177,0.3158,0.3155,0.3142,0.3138,0.3132,0.3127,0.3112,0.3103,0.3102,0.3097,0.3087,0.3077,0.3077,0.3072,0.3067,0.3067,0.3093,0.3097,0.31,0.3105,0.3066,0.3066,0.304,0.3039,0.3039]},{"header":{"parameterUnit":"m.s-1","parameterCategory":1,"la1":30.2991,"la2":30.254,"lo1":-89.0895,"lo2":-89.0444,"dy":0.0017,"dx":0.0017,"nx":28,"ny":28,"refTime":"2025-08-18T21:00:00:Z","depth":0,"parameterNumber":3,"parameterNumberName":"V-component_of_WINDS"},"data":[0,0,0,0,0,0,0,0,0,0,0,0,0,0,0,0,0,0,0,0,0,0,0,0,0,0,0,0,0,0,0,0,0,0,0,0,0,0,0,0,0,0,0,0,0,0,0,0,0,0,0,0,0,0,0,0,0,0,-0.3336,-0.3335,0,-0.3257,-0.3256,-0.3256,-0.3189,-0.3188,-0.3188,-0.3187,-0.3107,-0.3106,-0.3104,0,0,0,0,0,0,0,0,0,0,0,0,0,-0.3428,-0.3426,-0.3336,-0.3335,-0.3334,-0.3257,-0.3256,-0.3255,-0.3189,-0.3188,-0.3188,-0.3187,-0.3107,-0.3106,-0.3104,0,0,0,0,0,0,0,0,0,0,0,0,0,-0.3372,-0.3426,-0.3336,-0.3292,-0.3287,-0.3258,-0.3256,-0.3255,-0.319,-0.3188,-0.3187,-0.3186,-0.3108,-0.3106,-0.3104,-0.3112,0,0,-0.3097,-0.3096,0,0,0,0,0,0,0,0,-0.3376,-0.3369,-0.3299,-0.3295,-0.3289,-0.3232,-0.3259,-0.3207,-0.319,-0.3226,-0.3187,-0.3186,-0.3149,-0.3144,-0.3131,-0.3108,-0.3105,-0.3097,-0.3096,-0.3095,-0.3094,0,0,0,0,0,0,0,-0.338,-0.3372,-0.3305,-0.3298,-0.3292,-0.3275,-0.3266,-0.3249,-0.3195,-0.3223,-0.3218,-0.321,-0.3147,-0.3134,-0.3129,-0.3104,-0.3097,-0.3095,-0.3094,-0.3093,-0.3083,-0.3084,0,0,0,0,0,0,-0.339,-0.3376,-0.3307,-0.3302,-0.3331,-0.3275,-0.3265,-0.3251,-0.3195,-0.3185,-0.3211,-0.3207,-0.3138,-0.3132,-0.3126,-0.3132,-0.3095,-0.3093,-0.3091,-0.3082,-0.3084,-0.3085,0,0,0,0,0,0,-0.3392,-0.3385,-0.331,-0.3338,-0.3327,-0.3274,-0.326,-0.325,-0.3238,-0.3186,-0.3176,-0.3208,-0.3137,-0.3129,-0.3116,-0.3128,-0.3092,-0.309,-0.3081,-0.3083,-0.3084,-0.3144,0,0,0,0,0,0,-0.3395,-0.3386,-0.3389,-0.3338,-0.3326,-0.3302,-0.3261,-0.325,-0.3234,-0.3228,-0.318,-0.3171,-0.3135,-0.312,-0.3114,-0.3125,-0.3088,-0.308,-0.3082,-0.3084,-0.3141,-0.3148,-0.3153,0,0,0,0,0,-0.3399,-0.3409,-0.3389,-0.3381,-0.3328,-0.3303,-0.3295,-0.3254,-0.3235,-0.3237,-0.3204,-0.3173,-0.3128,-0.3119,-0.3112,-0.3122,-0.3079,-0.3081,-0.3083,-0.3138,-0.3146,-0.3153,0,0,0,0,0,0,-0.3462,-0.3401,-0.3379,-0.3373,-0.3343,-0.3292,-0.3293,-0.3264,-0.324,-0.3235,-0.3185,-0.3175,-0.3167,-0.3143,-0.3134,-0.3127,-0.3099,-0.31,-0.3143,-0.315,-0.3157,-0.3162,-0.3086,0,0,0,0,0,-0.3475,-0.346,-0.3408,-0.3407,-0.3394,-0.3346,-0.3334,-0.3304,-0.3272,-0.3259,-0.3225,-0.3194,-0.3173,-0.316,-0.3138,-0.3137,-0.3125,-0.3141,-0.3147,-0.3152,-0.3154,-0.3151,-0.3157,-0.3092,-0.3092,-0.3092,0,0,-0.3503,-0.3467,-0.3461,-0.3419,-0.3393,-0.3378,-0.3336,-0.3322,-0.331,-0.3257,-0.3242,-0.3216,-0.3179,-0.3172,-0.3167,-0.3152,-0.3169,-0.3155,-0.316,-0.3158,-0.3154,-0.316,-0.3166,-0.3094,-0.3094,-0.3094,0,0,-0.3544,-0.3516,-0.3513,-0.3487,-0.3448,-0.3416,-0.3416,-0.3368,-0.3349,-0.3333,-0.3293,-0.3278,-0.3243,-0.3218,-0.3201,-0.3233,-0.3203,-0.3228,-0.326,-0.3258,-0.3263,-0.3267,-0.3279,-0.3284,-0.3229,-0.3229,-0.3229,0,-0.3583,-0.3559,-0.3515,-0.3503,-0.3486,-0.3437,-0.3433,-0.341,-0.3366,-0.3355,-0.3338,-0.3293,-0.3265,-0.3251,-0.3259,-0.3247,-0.3244,-0.3233,-0.3266,-0.327,-0.3273,-0.3283,-0.3288,-0.3232,-0.3232,-0.3232,-0.3232,0,-0.3608,-0.3592,-0.3594,-0.3553,-0.3536,-0.3528,-0.3482,-0.347,-0.3443,-0.3413,-0.3398,-0.3362,-0.3331,-0.3326,-0.3299,-0.3308,-0.33,-0.3276,-0.3246,-0.3283,-0.3292,-0.3296,-0.3237,-0.3236,-0.3235,-0.3234,0,0,-0.3688,-0.3622,-0.3623,-0.3604,-0.3557,-0.3543,-0.3534,-0.3504,-0.3494,-0.3465,-0.3456,-0.3427,-0.3404,-0.3385,-0.3354,-0.3352,-0.338,-0.3328,-0.3326,-0.3339,-0.3388,-0.3407,-0.3412,-0.336,-0.3361,-0.3361,-0.3391,0,-0.3722,-0.3701,-0.3661,-0.3653,-0.3638,-0.3591,-0.3582,-0.3552,-0.3524,-0.3506,-0.3475,-0.3456,-0.3427,-0.3415,-0.3411,-0.3378,-0.3389,-0.3375,-0.335,-0.335,-0.3361,-0.3417,-0.3436,-0.3466,-0.3394,-0.3395,-0.3395,0,-0.3759,-0.3733,-0.3724,-0.3678,-0.3669,-0.3662,-0.3632,-0.3616,-0.3581,-0.356,-0.3539,-0.3505,-0.3492,-0.3466,-0.3446,-0.3438,-0.3425,-0.3407,-0.3407,-0.3403,-0.3375,-0.3414,-0.3475,-0.348,-0.34,-0.34,-0.3399,0,-0.3818,-0.3781,-0.377,-0.3755,-0.3701,-0.3697,-0.3674,-0.3638,-0.3623,-0.3596,-0.3585,-0.3557,-0.3542,-0.3521,-0.3481,-0.3466,-0.3466,-0.3437,-0.3449,-0.345,-0.3451,-0.3452,-0.3511,-0.3444,-0.3444,-0.3443,-0.3443,0,-0.386,-0.3856,-0.3796,-0.3789,-0.3783,-0.3737,-0.3732,-0.3705,-0.3674,-0.3661,-0.3619,-0.3608,-0.3555,-0.3538,-0.3506,-0.3495,-0.3489,-0.3472,-0.3463,-0.3475,-0.3478,-0.3466,-0.3463,-0.3445,-0.3444,-0.3444,-0.3444,0,-0.3925,-0.3884,-0.387,-0.382,-0.3807,-0.3805,-0.3762,-0.3754,-0.3723,-0.3707,-0.3701,-0.3653,-0.363,-0.3588,-0.3554,-0.3532,-0.3528,-0.3514,-0.354,-0.3535,-0.3549,-0.3549,-0.3604,-0.3608,-0.3539,-0.3539,-0.354,0,-0.3955,-0.3951,-0.39,-0.3889,-0.3868,-0.385,-0.3834,-0.3788,-0.3773,-0.3733,-0.373,-0.3704,-0.3681,-0.3647,-0.3609,-0.3582,-0.3567,-0.3588,-0.3562,-0.3575,-0.3567,-0.3567,-0.3567,-0.3594,-0.3595,-0.3595,-0.3596,0,-0.4012,-0.3992,-0.397,-0.3942,-0.3924,-0.39,-0.3873,-0.3866,-0.3814,-0.3799,-0.3776,-0.3758,-0.3723,-0.3697,-0.3665,-0.3642,-0.361,-0.3604,-0.3606,-0.3618,-0.3633,-0.3625,-0.3555,-0.3603,-0.3603,-0.3602,-0.3602,-0.3601,-0.406,-0.4054,-0.4017,-0.3995,-0.397,-0.3946,-0.3936,-0.3903,-0.3883,-0.3851,-0.3825,-0.3804,-0.3769,-0.3722,-0.37,-0.3683,-0.3668,-0.367,-0.367,-0.3672,-0.3677,-0.3636,-0.3677,-0.3676,-0.3676,-0.3676,-0.3676,0,-0.4114,-0.4089,-0.4068,-0.4032,-0.4015,-0.3987,-0.3955,-0.3942,-0.3924,-0.3894,-0.3872,-0.3845,-0.382,-0.378,-0.3752,-0.3746,-0.3731,-0.374,-0.374,-0.3735,-0.3692,-0.3693,-0.3753,-0.3753,-0.3753,-0.3753,-0.3753,-0.3753,-0.4141,-0.4129,-0.4105,-0.408,-0.4054,-0.4033,-0.4017,-0.3995,-0.3971,-0.3942,-0.3922,-0.3896,-0.3861,-0.383,-0.3806,-0.3795,-0.3787,-0.3801,-0.3785,-0.3745,-0.3738,-0.3731,-0.3732,-0.3799,-0.3799,-0.383,-0.383,-0.383]}]]